sat.trackr.live / text

‹ back to catalog

STARLINK-31826

NORAD 59768 · 2024-091R

PAYLOAD ACTIVE UNKNOWN

§ Identity

Operator
Country
US
Launch date
2024-05-14
Launch site
AFWTR
Launch vehicle
Mass (kg)
RCS (m²)

Purposes: comms

External: N2YO · Heavens-Above · Gunter

§ Orbital elements

Epoch: 2026-05-25T01:36:49.809888Z

Period
93.48 min
Inclination
53.1574°
Eccentricity
0.0006762
Mean motion
15.40458624 rev/d
Perigee alt
440.1 km
Apogee alt
449.4 km
Semi-major
6,822.9 km
B*
1.9769e-3
RAAN
29.5935°
Arg perigee
135.9689°
Mean anomaly
224.1856°
Rev number
11,473

§ Raw data

STARLINK-318261 59768U 24091R   26145.06724317  .00081817  00000+0  19769-2 0  99972 59768  53.1574  29.5935 0006762 135.9689 224.1856 15.40458624114730

JSON: /api/v1/satellites/59768 · /tle

For live sub-satellite position, see the globe view (requires WebGL).

§ Visibility from observer

Set your observer location to see the next 7 days of passes ≥ 10°. The values pass through the URL so the page stays shareable.

No JS? Fill the form by hand. The geolocation button needs JavaScript.